Flag for U.S.A. Weather past 2 weeks in Salt Lake City, Utah, U.S.A.

Now
90 °F

Scattered clouds.


Feels Like: 87 °F
Forecast: 72 / 89 °F
Wind: No wind

Location: Salt Lake City International Airport

Current Time: Aug 4, 2015 at 6:30:26 PM

Latest Report: Aug 4, 2015 at 5:53 PM


Visibility: 10 mi

Pressure: 29.83 "Hg (25.76 "Hg at 1312m altitude)

Humidity: 22%

Dew point: 46 °F

Location of Salt Lake CityLocation

Historic Weather in Salt Lake City — Graph

°F

Salt Lake City temperature yesterday

Maximum temperature yesterday: 75 °F (at 12:53 AM)
Minimum temperature yesterday: 62 °F (at 11:53 AM)
Average temperature yesterday: 66 °F

Past Weeks' High & Low Weather Summary

 TemperatureHumidityPressure
High103 °F (Jul 21, 4:53 PM)96% (Aug 3, 11:53 AM)30.17 "Hg (Aug 3, 11:53 AM)
Low54 °F (Jul 29, 5:53 AM)6% (Jul 26, 3:53 PM)29.56 "Hg (Jul 26, 11:53 PM)
Average76 °F35%29.92 "Hg
* Reported Jul 20 4:53 PM — Aug 4 4:53 PM, Salt Lake City, Weather by CustomWeather, © 2015

Note: Actual official high and low records may vary slightly from our data, if they occured in-between our weather recording intervals... More about our weather records

Advertising

Salt Lake City weather history for previous 24 hours

 ConditionsComfort  
Time TempWeatherWind HumidityBarometerVisibility
4:53 PM
Tue, Aug 4
90 °FScattered clouds.3 mph22%29.84 "Hg10 mi
3:53 PM89 °FScattered clouds.3 mph25%29.86 "Hg10 mi
2:53 PM87 °FPassing clouds.6 mph26%29.90 "Hg10 mi
1:53 PM84 °FPassing clouds.N/A29%29.92 "Hg10 mi
12:53 PM82 °FPassing clouds.6 mph37%29.94 "Hg10 mi
11:53 AM78 °FPassing clouds.No wind45%29.96 "Hg10 mi
10:53 AM74 °FScattered clouds.3 mph52%29.97 "Hg10 mi
9:53 AM71 °FScattered clouds.No wind55%29.98 "Hg10 mi
8:53 AM66 °FPassing clouds.8 mph68%30.00 "Hg10 mi
7:53 AM64 °FPassing clouds.5 mph73%30.00 "Hg10 mi
6:53 AM60 °FClear.5 mph80%29.98 "Hg10 mi
5:53 AM60 °FClear.3 mph78%29.97 "Hg10 mi
4:53 AM60 °FPassing clouds.6 mph80%29.97 "Hg10 mi
3:53 AM61 °FPassing clouds.6 mph78%29.96 "Hg10 mi
2:53 AM62 °FClear.5 mph75%29.96 "Hg10 mi
1:53 AM63 °FClear.6 mph75%29.96 "Hg10 mi
12:53 AM64 °FPassing clouds.5 mph73%29.96 "Hg10 mi
11:53 PM
Mon, Aug 3
64 °FPassing clouds.10 mph75%29.96 "Hg10 mi
10:53 PM65 °FPassing clouds.9 mph76%29.94 "Hg10 mi
9:53 PM66 °FPassing clouds.8 mph78%29.95 "Hg10 mi
8:53 PM68 °FPartly sunny.5 mph70%29.96 "Hg10 mi
7:53 PM69 °FBroken clouds.6 mph66%29.95 "Hg10 mi
6:53 PM69 °FBroken clouds.3 mph66%29.96 "Hg10 mi
Weather by CustomWeather, © 2015

See weather overviewHow to use our weather pages